"Sample Date","Sample Time","Sample Value","Units","Flow Rate","Number Channels","Micron Size 0","Counts/Channel 0","Micron Size 1","Counts/Channel 1","Micron Size 2","Counts/Channel 2","Micron Size 3","Counts/Channel 3","Micron Size 4","Counts/Channel 4","Micron Size 5","Counts/Channel 5","Micron Size 6","Counts/Channel 6","Micron Size 7","Counts/Channel 7","Micron Size 8","Counts/Channel 8","Micron Size 9","Counts/Channel 9","Micron Size 10","Counts/Channel 10","Micron Size 11","Counts/Channel 11","Micron Size 12","Counts/Channel 12","Micron Size 13","Counts/Channel 13","Micron Size 14","Counts/Channel 14","Micron Size 15","Counts/Channel 15","Micron Size 16","Counts/Channel 16","Micron Size 17","Counts/Channel 17","Micron Size 18","Counts/Channel 18","Micron Size 19","Counts/Channel 19","Micron Size 20","Counts/Channel 20","Micron Size 21","Counts/Channel 21","Micron Size 22","Counts/Channel 22","Micron Size 23","Counts/Channel 23","Micron Size 24","Counts/Channel 24","Micron Size 25","Counts/Channel 25","Micron Size 26","Counts/Channel 26","Micron Size 27","Counts/Channel 27","Micron Size 28","Counts/Channel 28","Micron Size 29","Counts/Channel 29","Micron Size 30","Counts/Channel 30","Micron Size 31","Counts/Channel 31"
"05/11/08","11:00:03",5579.000,"cc",28326.715,6,0.100,4858.000,0.200,656.000,0.300,49.000,0.500,16.000,1.000,0,5.000,0
"05/11/08","11:00:09",5122.000,"cc",28338.311,6,0.100,4463.000,0.200,595.000,0.300,55.000,0.500,8.000,1.000,1.000,5.000,0
"05/11/08","11:00:15",3380.000,"cc",28346.334,6,0.100,2895.000,0.200,442.000,0.300,37.000,0.500,6.000,1.000,0,5.000,0
"05/11/08","11:00:21",4864.000,"cc",28311.576,6,0.100,4161.000,0.200,633.000,0.300,49.000,0.500,19.000,1.000,2.000,5.000,0
"05/11/08","11:00:27",3524.000,"cc",28295.281,6,0.100,3026.000,0.200,461.000,0.300,28.000,0.500,9.000,1.000,0,5.000,0
"05/11/08","11:00:33",4695.000,"cc",28323.357,6,0.100,4018.000,0.200,610.000,0.300,52.000,0.500,14.000,1.000,1.000,5.000,0
"05/11/08","11:00:39",4861.000,"cc",28343.574,6,0.100,4149.000,0.200,650.000,0.300,52.000,0.500,10.000,1.000,0,5.000,0
"05/11/08","11:00:45",5276.000,"cc",28334.676,6,0.100,4525.000,0.200,684.000,0.300,56.000,0.500,11.000,1.000,0,5.000,0
"05/11/08","11:00:51",5796.000,"cc",28301.746,6,0.100,4982.000,0.200,732.000,0.300,67.000,0.500,15.000,1.000,0,5.000,0
"05/11/08","11:00:57",4264.000,"cc",28281.332,6,0.100,3613.000,0.200,572.000,0.300,64.000,0.500,14.000,1.000,1.000,5.000,0
"05/11/08","11:01:03",3443.000,"cc",28330.672,6,0.100,2952.000,0.200,442.000,0.300,37.000,0.500,11.000,1.000,1.000,5.000,0
"05/11/08","11:01:09",5786.000,"cc",28339.109,6,0.100,4986.000,0.200,730.000,0.300,66.000,0.500,4.000,1.000,0,5.000,0
"05/11/08","11:01:15",5426.000,"cc",28300.281,6,0.100,4685.000,0.200,665.000,0.300,60.000,0.500,16.000,1.000,0,5.000,0
"05/11/08","11:01:21",7759.000,"cc",28351.656,6,0.100,6712.000,0.200,956.000,0.300,78.000,0.500,12.000,1.000,1.000,5.000,0
"05/11/08","11:01:27",6790.000,"cc",28227.967,6,0.100,5863.000,0.200,858.000,0.300,51.000,0.500,18.000,1.000,0,5.000,0
"05/11/08","11:01:33",6115.000,"cc",28277.481,6,0.100,5181.000,0.200,834.000,0.300,86.000,0.500,14.000,1.000,0,5.000,0
"05/11/08","11:01:39",5950.000,"cc",28346.090,6,0.100,5120.000,0.200,753.000,0.300,72.000,0.500,5.000,1.000,0,5.000,0
"05/11/08","11:01:45",7248.000,"cc",28352.670,6,0.100,6268.000,0.200,903.000,0.300,63.000,0.500,14.000,1.000,0,5.000,0
"05/11/08","11:01:51",9788.000,"cc",28339.031,6,0.100,8500.000,0.200,1208.000,0.300,71.000,0.500,9.000,1.000,0,5.000,0
"05/11/08","11:01:57",7936.000,"cc",28321.236,6,0.100,6839.000,0.200,1017.000,0.300,65.000,0.500,15.000,1.000,0,5.000,0
"05/11/08","11:02:03",7319.000,"cc",28346.045,6,0.100,6295.000,0.200,962.000,0.300,54.000,0.500,8.000,1.000,0,5.000,0
"05/11/08","11:02:09",7200.000,"cc",28298.822,6,0.100,6203.000,0.200,909.000,0.300,77.000,0.500,11.000,1.000,0,5.000,0
"05/11/08","11:02:15",7624.000,"cc",28320.484,6,0.100,6634.000,0.200,934.000,0.300,46.000,0.500,10.000,1.000,0,5.000,0
"05/11/08","11:02:21",5132.000,"cc",28331.373,6,0.100,4434.000,0.200,650.000,0.300,43.000,0.500,4.000,1.000,1.000,5.000,0
"05/11/08","11:02:27",7203.000,"cc",28331.820,6,0.100,6258.000,0.200,886.000,0.300,50.000,0.500,7.000,1.000,2.000,5.000,0
"05/11/08","11:02:33",6292.000,"cc",28335.301,6,0.100,5400.000,0.200,834.000,0.300,52.000,0.500,6.000,1.000,0,5.000,0
"05/11/08","11:02:39",8999.000,"cc",28285.043,6,0.100,7840.000,0.200,1094.000,0.300,53.000,0.500,11.000,1.000,1.000,5.000,0
"05/11/08","11:02:45",9737.000,"cc",28289.188,6,0.100,8463.000,0.200,1181.000,0.300,80.000,0.500,13.000,1.000,0,5.000,0
"05/11/08","11:02:51",7623.000,"cc",28329.158,6,0.100,6643.000,0.200,903.000,0.300,65.000,0.500,12.000,1.000,0,5.000,0
"05/11/08","11:02:57",8241.000,"cc",28288.115,6,0.100,7150.000,0.200,1007.000,0.300,68.000,0.500,16.000,1.000,0,5.000,0
"05/11/08","11:03:03",12789.000,"cc",28325.397,6,0.100,11116.000,0.200,1545.000,0.300,107.000,0.500,20.000,1.000,1.000,5.000,0
"05/11/08","11:03:09",7228.000,"cc",28354.613,6,0.100,6249.000,0.200,903.000,0.300,70.000,0.500,6.000,1.000,0,5.000,0
"05/11/08","11:03:15",9498.000,"cc",28294.824,6,0.100,8272.000,0.200,1135.000,0.300,81.000,0.500,9.000,1.000,1.000,5.000,0
"05/11/08","11:03:21",7842.000,"cc",28327.877,6,0.100,6758.000,0.200,1001.000,0.300,70.000,0.500,12.000,1.000,1.000,5.000,0
"05/11/08","11:03:27",6061.000,"cc",28330.240,6,0.100,5187.000,0.200,786.000,0.300,69.000,0.500,19.000,1.000,0,5.000,0
"05/11/08","11:03:33",3567.000,"cc",28255.736,6,0.100,3056.000,0.200,466.000,0.300,37.000,0.500,8.000,1.000,0,5.000,0
"05/11/08","11:03:39",4677.000,"cc",28349.682,6,0.100,4017.000,0.200,594.000,0.300,59.000,0.500,7.000,1.000,0,5.000,0
"05/11/08","11:03:45",4532.000,"cc",28396.051,6,0.100,3817.000,0.200,634.000,0.300,66.000,0.500,15.000,1.000,0,5.000,0
"05/11/08","11:03:51",6498.000,"cc",28281.656,6,0.100,5564.000,0.200,833.000,0.300,82.000,0.500,17.000,1.000,2.000,5.000,0
"05/11/08","11:03:57",4800.000,"cc",28245.885,6,0.100,4087.000,0.200,640.000,0.300,58.000,0.500,15.000,1.000,0,5.000,0
"05/11/08","11:04:03",5366.000,"cc",28372.426,6,0.100,4595.000,0.200,699.000,0.300,53.000,0.500,17.000,1.000,2.000,5.000,0
"05/11/08","11:04:09",5347.000,"cc",28352.139,6,0.100,4597.000,0.200,679.000,0.300,58.000,0.500,13.000,1.000,0,5.000,0
"05/11/08","11:04:15",3113.000,"cc",28362.475,6,0.100,2660.000,0.200,420.000,0.300,30.000,0.500,3.000,1.000,0,5.000,0
"05/11/08","11:04:21",2695.000,"cc",28308.053,6,0.100,2265.000,0.200,382.000,0.300,41.000,0.500,7.000,1.000,0,5.000,0
"05/11/08","11:04:27",5311.000,"cc",28222.652,6,0.100,4615.000,0.200,643.000,0.300,43.000,0.500,9.000,1.000,1.000,5.000,0
"05/11/08","11:04:33",9961.000,"cc",28355.375,6,0.100,8665.000,0.200,1215.000,0.300,65.000,0.500,16.000,1.000,0,5.000,0
"05/11/08","11:04:39",5773.000,"cc",28328.893,6,0.100,4958.000,0.200,744.000,0.300,64.000,0.500,7.000,1.000,0,5.000,0
"05/11/08","11:04:45",7145.000,"cc",28366.668,6,0.100,6150.000,0.200,920.000,0.300,61.000,0.500,13.000,1.000,1.000,5.000,0
"05/11/08","11:04:51",6761.000,"cc",28287.664,6,0.100,5859.000,0.200,830.000,0.300,64.000,0.500,8.000,1.000,0,5.000,0
"05/11/08","11:04:57",7552.000,"cc",28341.338,6,0.100,6637.000,0.200,868.000,0.300,39.000,0.500,8.000,1.000,0,5.000,0
"05/11/08","11:05:03",20501.000,"cc",28323.272,6,0.100,18147.000,0.200,2261.000,0.300,88.000,0.500,5.000,1.000,0,5.000,0
"05/11/08","11:05:09",17178.000,"cc",28261.465,6,0.100,15169.000,0.200,1930.000,0.300,76.000,0.500,3.000,1.000,0,5.000,0
"05/11/08","11:05:15",20524.000,"cc",28262.047,6,0.100,18213.000,0.200,2220.000,0.300,83.000,0.500,7.000,1.000,1.000,5.000,0
"05/11/08","11:05:21",16132.000,"cc",28341.273,6,0.100,14241.000,0.200,1787.000,0.300,90.000,0.500,13.000,1.000,1.000,5.000,0
"05/11/08","11:05:27",8416.000,"cc",28267.791,6,0.100,7398.000,0.200,962.000,0.300,45.000,0.500,11.000,1.000,0,5.000,0
"05/11/08","11:05:33",13737.000,"cc",28317.289,6,0.100,12075.000,0.200,1561.000,0.300,89.000,0.500,12.000,1.000,0,5.000,0
"05/11/08","11:05:39",7618.000,"cc",28319.705,6,0.100,6659.000,0.200,893.000,0.300,55.000,0.500,10.000,1.000,1.000,5.000,0
"05/11/08","11:05:45",13700.000,"cc",28286.236,6,0.100,12014.000,0.200,1580.000,0.300,88.000,0.500,16.000,1.000,2.000,5.000,0
"05/11/08","11:05:51",13657.000,"cc",28357.992,6,0.100,12028.000,0.200,1529.000,0.300,87.000,0.500,13.000,1.000,0,5.000,0
"05/11/08","11:05:57",13649.000,"cc",28365.566,6,0.100,11875.000,0.200,1651.000,0.300,104.000,0.500,19.000,1.000,0,5.000,0
"05/11/08","11:06:03",14314.000,"cc",28311.504,6,0.100,12517.000,0.200,1670.000,0.300,108.000,0.500,18.000,1.000,1.000,5.000,0
"05/11/08","11:06:09",10958.000,"cc",28296.377,6,0.100,9673.000,0.200,1207.000,0.300,68.000,0.500,10.000,1.000,0,5.000,0
"05/11/08","11:06:15",10812.000,"cc",28340.059,6,0.100,9457.000,0.200,1266.000,0.300,79.000,0.500,9.000,1.000,1.000,5.000,0
"05/11/08","11:06:21",9378.000,"cc",28312.465,6,0.100,8222.000,0.200,1063.000,0.300,79.000,0.500,13.000,1.000,1.000,5.000,0
"05/11/08","11:06:27",7528.000,"cc",28332.109,6,0.100,6547.000,0.200,910.000,0.300,57.000,0.500,14.000,1.000,0,5.000,0
"05/11/08","11:06:33",7832.000,"cc",28292.059,6,0.100,6802.000,0.200,944.000,0.300,76.000,0.500,10.000,1.000,0,5.000,0
"05/11/08","11:06:39",12479.000,"cc",28342.770,6,0.100,10915.000,0.200,1470.000,0.300,79.000,0.500,15.000,1.000,0,5.000,0
"05/11/08","11:06:45",8092.000,"cc",28384.412,6,0.100,7071.000,0.200,956.000,0.300,52.000,0.500,11.000,1.000,2.000,5.000,0
"05/11/08","11:06:51",8004.000,"cc",28289.686,6,0.100,6997.000,0.200,916.000,0.300,75.000,0.500,16.000,1.000,0,5.000,0
"05/11/08","11:06:57",11910.000,"cc",28279.799,6,0.100,10378.000,0.200,1414.000,0.300,96.000,0.500,21.000,1.000,1.000,5.000,0
"05/11/08","11:07:03",10522.000,"cc",28340.867,6,0.100,9124.000,0.200,1290.000,0.300,88.000,0.500,18.000,1.000,2.000,5.000,0
"05/11/08","11:07:09",8287.000,"cc",28307.631,6,0.100,7215.000,0.200,971.000,0.300,85.000,0.500,15.000,1.000,1.000,5.000,0
"05/11/08","11:07:15",5647.000,"cc",28364.912,6,0.100,4872.000,0.200,707.000,0.300,60.000,0.500,8.000,1.000,0,5.000,0
"05/11/08","11:07:21",6086.000,"cc",28327.164,6,0.100,5295.000,0.200,725.000,0.300,60.000,0.500,6.000,1.000,0,5.000,0
"05/11/08","11:07:27",11797.000,"cc",28267.650,6,0.100,10344.000,0.200,1359.000,0.300,84.000,0.500,10.000,1.000,0,5.000,0
"05/11/08","11:07:33",10998.000,"cc",28284.900,6,0.100,9536.000,0.200,1356.000,0.300,90.000,0.500,16.000,1.000,0,5.000,0
"05/11/08","11:07:39",6989.000,"cc",28332.311,6,0.100,5999.000,0.200,886.000,0.300,92.000,0.500,12.000,1.000,0,5.000,0
"05/11/08","11:07:45",5645.000,"cc",28347.285,6,0.100,4862.000,0.200,713.000,0.300,60.000,0.500,10.000,1.000,0,5.000,0
"05/11/08","11:07:51",10200.000,"cc",28268.813,6,0.100,8886.000,0.200,1213.000,0.300,88.000,0.500,13.000,1.000,0,5.000,0
"05/11/08","11:07:57",8662.000,"cc",28294.322,6,0.100,7553.000,0.200,1030.000,0.300,70.000,0.500,9.000,1.000,0,5.000,0
"05/11/08","11:08:03",8659.000,"cc",28335.035,6,0.100,7532.000,0.200,1038.000,0.300,79.000,0.500,10.000,1.000,0,5.000,0
"05/11/08","11:08:09",7148.000,"cc",28310.357,6,0.100,6196.000,0.200,874.000,0.300,61.000,0.500,17.000,1.000,0,5.000,0
"05/11/08","11:08:15",6037.000,"cc",28298.592,6,0.100,5230.000,0.200,735.000,0.300,62.000,0.500,10.000,1.000,0,5.000,0
"05/11/08","11:08:21",12230.000,"cc",28271.133,6,0.100,10636.000,0.200,1494.000,0.300,92.000,0.500,7.000,1.000,1.000,5.000,0
"05/11/08","11:08:27",13834.000,"cc",28317.022,6,0.100,12085.000,0.200,1653.000,0.300,88.000,0.500,8.000,1.000,0,5.000,0
"05/11/08","11:08:33",8749.000,"cc",28352.992,6,0.100,7676.000,0.200,1015.000,0.300,47.000,0.500,11.000,1.000,0,5.000,0
"05/11/08","11:08:39",8884.000,"cc",28318.865,6,0.100,7759.000,0.200,1050.000,0.300,63.000,0.500,12.000,1.000,0,5.000,0
"05/11/08","11:08:45",11536.000,"cc",28307.840,6,0.100,10060.000,0.200,1390.000,0.300,69.000,0.500,16.000,1.000,1.000,5.000,0
"05/11/08","11:08:51",13673.000,"cc",28310.928,6,0.100,11994.000,0.200,1599.000,0.300,70.000,0.500,10.000,1.000,0,5.000,0
"05/11/08","11:08:57",10352.000,"cc",28299.459,6,0.100,9081.000,0.200,1207.000,0.300,61.000,0.500,3.000,1.000,0,5.000,0
"05/11/08","11:09:03",11915.000,"cc",28330.195,6,0.100,10491.000,0.200,1326.000,0.300,88.000,0.500,10.000,1.000,0,5.000,0
"05/11/08","11:09:09",6852.000,"cc",28338.641,6,0.100,5919.000,0.200,864.000,0.300,63.000,0.500,5.000,1.000,1.000,5.000,0
"05/11/08","11:09:15",5392.000,"cc",28324.109,6,0.100,4663.000,0.200,658.000,0.300,63.000,0.500,7.000,1.000,1.000,5.000,0
"05/11/08","11:09:21",4392.000,"cc",28253.438,6,0.100,3801.000,0.200,526.000,0.300,58.000,0.500,6.000,1.000,1.000,5.000,0
"05/11/08","11:09:27",3792.000,"cc",28317.986,6,0.100,3266.000,0.200,484.000,0.300,33.000,0.500,8.000,1.000,1.000,5.000,0
"05/11/08","11:09:33",6528.000,"cc",28314.576,6,0.100,5675.000,0.200,791.000,0.300,49.000,0.500,13.000,1.000,0,5.000,0
"05/11/08","11:09:39",5334.000,"cc",28309.336,6,0.100,4618.000,0.200,657.000,0.300,52.000,0.500,5.000,1.000,2.000,5.000,0
"05/11/08","11:09:45",4177.000,"cc",28307.588,6,0.100,3615.000,0.200,510.000,0.300,49.000,0.500,3.000,1.000,0,5.000,0
"05/11/08","11:09:51",3503.000,"cc",28345.799,6,0.100,3041.000,0.200,421.000,0.300,38.000,0.500,3.000,1.000,0,5.000,0
"05/11/08","11:09:57",4529.000,"cc",28346.619,6,0.100,3938.000,0.200,542.000,0.300,42.000,0.500,7.000,1.000,0,5.000,0
"05/11/08","11:10:03",3796.000,"cc",28318.826,6,0.100,3284.000,0.200,465.000,0.300,43.000,0.500,4.000,1.000,0,5.000,0
"05/11/08","11:10:09",6033.000,"cc",28346.051,6,0.100,5240.000,0.200,725.000,0.300,58.000,0.500,8.000,1.000,2.000,5.000,0
"05/11/08","11:10:15",8170.000,"cc",28296.025,6,0.100,7196.000,0.200,916.000,0.300,52.000,0.500,5.000,1.000,1.000,5.000,0
"05/11/08","11:10:21",6815.000,"cc",28304.717,6,0.100,6011.000,0.200,749.000,0.300,45.000,0.500,7.000,1.000,3.000,5.000,0
"05/11/08","11:10:27",6196.000,"cc",28367.588,6,0.100,5429.000,0.200,718.000,0.300,45.000,0.500,4.000,1.000,0,5.000,0
"05/11/08","11:10:33",5999.000,"cc",28307.379,6,0.100,5233.000,0.200,704.000,0.300,53.000,0.500,9.000,1.000,0,5.000,0
"05/11/08","11:10:39",7007.000,"cc",28283.873,6,0.100,6044.000,0.200,888.000,0.300,64.000,0.500,11.000,1.000,0,5.000,0
"05/11/08","11:10:45",6700.000,"cc",28296.393,6,0.100,5847.000,0.200,779.000,0.300,63.000,0.500,11.000,1.000,0,5.000,0
"05/11/08","11:10:51",6973.000,"cc",28304.170,6,0.100,6036.000,0.200,875.000,0.300,49.000,0.500,13.000,1.000,0,5.000,0
"05/11/08","11:10:57",5442.000,"cc",28292.188,6,0.100,4727.000,0.200,665.000,0.300,46.000,0.500,3.000,1.000,1.000,5.000,0
"05/11/08","11:11:03",7681.000,"cc",28309.742,6,0.100,6683.000,0.200,940.000,0.300,53.000,0.500,4.000,1.000,1.000,5.000,0
"05/11/08","11:11:09",8795.000,"cc",28368.065,6,0.100,7704.000,0.200,1035.000,0.300,50.000,0.500,6.000,1.000,0,5.000,0
"05/11/08","11:11:15",5504.000,"cc",28301.402,6,0.100,4825.000,0.200,638.000,0.300,35.000,0.500,6.000,1.000,0,5.000,0
"05/11/08","11:11:21",4288.000,"cc",28329.184,6,0.100,3697.000,0.200,541.000,0.300,41.000,0.500,9.000,1.000,0,5.000,0
"05/11/08","11:11:27",4856.000,"cc",28350.856,6,0.100,4206.000,0.200,584.000,0.300,53.000,0.500,13.000,1.000,0,5.000,0
"05/11/08","11:11:33",3859.000,"cc",28323.027,6,0.100,3298.000,0.200,519.000,0.300,36.000,0.500,6.000,1.000,0,5.000,0
"05/11/08","11:11:39",4058.000,"cc",28333.426,6,0.100,3533.000,0.200,477.000,0.300,39.000,0.500,8.000,1.000,1.000,5.000,0
"05/11/08","11:11:45",3798.000,"cc",28293.916,6,0.100,3285.000,0.200,463.000,0.300,41.000,0.500,8.000,1.000,1.000,5.000,0
"05/11/08","11:11:51",3981.000,"cc",28277.781,6,0.100,3486.000,0.200,446.000,0.300,33.000,0.500,15.000,1.000,1.000,5.000,0
"05/11/08","11:11:57",3902.000,"cc",28335.994,6,0.100,3393.000,0.200,467.000,0.300,38.000,0.500,3.000,1.000,1.000,5.000,0
"05/11/08","11:12:03",3288.000,"cc",28311.762,6,0.100,2828.000,0.200,416.000,0.300,37.000,0.500,7.000,1.000,0,5.000,0
"05/11/08","11:12:09",5798.000,"cc",28282.565,6,0.100,5055.000,0.200,678.000,0.300,54.000,0.500,11.000,1.000,0,5.000,0
"05/11/08","11:12:15",5572.000,"cc",28313.182,6,0.100,4847.000,0.200,662.000,0.300,55.000,0.500,7.000,1.000,1.000,5.000,0
"05/11/08","11:12:21",4677.000,"cc",28372.475,6,0.100,4031.000,0.200,578.000,0.300,57.000,0.500,11.000,1.000,0,5.000,0
"05/11/08","11:12:27",5112.000,"cc",28279.707,6,0.100,4445.000,0.200,617.000,0.300,44.000,0.500,6.000,1.000,0,5.000,0
"05/11/08","11:12:33",3775.000,"cc",28291.205,6,0.100,3216.000,0.200,497.000,0.300,58.000,0.500,4.000,1.000,0,5.000,0
"05/11/08","11:12:39",4934.000,"cc",28369.715,6,0.100,4229.000,0.200,641.000,0.300,55.000,0.500,9.000,1.000,0,5.000,0
"05/11/08","11:12:45",3543.000,"cc",28304.754,6,0.100,3088.000,0.200,415.000,0.300,33.000,0.500,7.000,1.000,0,5.000,0
"05/11/08","11:12:51",3882.000,"cc",28315.215,6,0.100,3379.000,0.200,463.000,0.300,34.000,0.500,5.000,1.000,1.000,5.000,0
"05/11/08","11:12:57",4018.000,"cc",28362.260,6,0.100,3452.000,0.200,521.000,0.300,37.000,0.500,8.000,1.000,0,5.000,0
"05/11/08","11:13:03",2867.000,"cc",28355.738,6,0.100,2447.000,0.200,373.000,0.300,36.000,0.500,8.000,1.000,3.000,5.000,0
"05/11/08","11:13:09",2978.000,"cc",28238.375,6,0.100,2527.000,0.200,404.000,0.300,34.000,0.500,12.000,1.000,1.000,5.000,0
"05/11/08","11:13:15",2301.000,"cc",28370.166,6,0.100,1972.000,0.200,300.000,0.300,22.000,0.500,6.000,1.000,1.000,5.000,0
"05/11/08","11:13:21",3107.000,"cc",28303.492,6,0.100,2690.000,0.200,386.000,0.300,25.000,0.500,6.000,1.000,0,5.000,0
"05/11/08","11:13:27",2395.000,"cc",28299.652,6,0.100,2046.000,0.200,309.000,0.300,36.000,0.500,4.000,1.000,0,5.000,0
"05/11/08","11:13:33",2740.000,"cc",28306.023,6,0.100,2331.000,0.200,364.000,0.300,39.000,0.500,6.000,1.000,0,5.000,0
"05/11/08","11:13:39",2828.000,"cc",28333.578,6,0.100,2420.000,0.200,372.000,0.300,30.000,0.500,5.000,1.000,1.000,5.000,0
"05/11/08","11:13:45",2085.000,"cc",28250.270,6,0.100,1793.000,0.200,247.000,0.300,38.000,0.500,7.000,1.000,0,5.000,0
"05/11/08","11:13:51",2449.000,"cc",28298.902,6,0.100,2117.000,0.200,288.000,0.300,39.000,0.500,5.000,1.000,0,5.000,0
"05/11/08","11:13:57",2447.000,"cc",28308.943,6,0.100,2070.000,0.200,329.000,0.300,41.000,0.500,7.000,1.000,0,5.000,0
"05/11/08","11:14:03",2549.000,"cc",28297.891,6,0.100,2167.000,0.200,332.000,0.300,46.000,0.500,4.000,1.000,0,5.000,0
"05/11/08","11:14:09",2701.000,"cc",28386.006,6,0.100,2318.000,0.200,338.000,0.300,40.000,0.500,5.000,1.000,0,5.000,0
"05/11/08","11:14:15",2413.000,"cc",28246.010,6,0.100,2046.000,0.200,326.000,0.300,35.000,0.500,6.000,1.000,0,5.000,0
"05/11/08","11:14:21",2384.000,"cc",28319.625,6,0.100,2031.000,0.200,327.000,0.300,21.000,0.500,5.000,1.000,0,5.000,0
"05/11/08","11:14:27",2630.000,"cc",28309.490,6,0.100,2264.000,0.200,323.000,0.300,38.000,0.500,5.000,1.000,0,5.000,0
"05/11/08","11:14:33",2151.000,"cc",28302.246,6,0.100,1826.000,0.200,286.000,0.300,34.000,0.500,5.000,1.000,0,5.000,0
"05/11/08","11:14:39",2433.000,"cc",28260.727,6,0.100,2081.000,0.200,306.000,0.300,36.000,0.500,9.000,1.000,1.000,5.000,0
"05/11/08","11:14:45",2222.000,"cc",28367.107,6,0.100,1874.000,0.200,304.000,0.300,36.000,0.500,8.000,1.000,0,5.000,0
"05/11/08","11:14:51",2139.000,"cc",28307.920,6,0.100,1819.000,0.200,276.000,0.300,38.000,0.500,6.000,1.000,0,5.000,0
"05/11/08","11:14:57",1998.000,"cc",28343.035,6,0.100,1650.000,0.200,303.000,0.300,37.000,0.500,8.000,1.000,0,5.000,0
"05/11/08","11:15:03",1886.000,"cc",28385.824,6,0.100,1560.000,0.200,275.000,0.300,43.000,0.500,8.000,1.000,0,5.000,0
"05/11/08","11:15:09",1932.000,"cc",28340.504,6,0.100,1577.000,0.200,296.000,0.300,52.000,0.500,7.000,1.000,0,5.000,0
"05/11/08","11:15:15",2024.000,"cc",28312.471,6,0.100,1689.000,0.200,275.000,0.300,52.000,0.500,8.000,1.000,0,5.000,0
"05/11/08","11:15:21",2073.000,"cc",28308.998,6,0.100,1745.000,0.200,298.000,0.300,24.000,0.500,6.000,1.000,0,5.000,0
"05/11/08","11:15:27",2245.000,"cc",28273.174,6,0.100,1895.000,0.200,304.000,0.300,35.000,0.500,10.000,1.000,1.000,5.000,0
"05/11/08","11:15:33",3815.000,"cc",28289.898,6,0.100,3294.000,0.200,476.000,0.300,40.000,0.500,5.000,1.000,0,5.000,0
"05/11/08","11:15:39",3051.000,"cc",28282.352,6,0.100,2584.000,0.200,409.000,0.300,46.000,0.500,11.000,1.000,1.000,5.000,0
"05/11/08","11:15:45",2526.000,"cc",28264.061,6,0.100,2140.000,0.200,329.000,0.300,45.000,0.500,12.000,1.000,0,5.000,0
"05/11/08","11:15:51",2180.000,"cc",28340.859,6,0.100,1827.000,0.200,313.000,0.300,31.000,0.500,9.000,1.000,0,5.000,0
"05/11/08","11:15:57",2000.000,"cc",28407.440,6,0.100,1660.000,0.200,288.000,0.300,40.000,0.500,11.000,1.000,1.000,5.000,0
"05/11/08","11:16:03",2048.000,"cc",28411.947,6,0.100,1715.000,0.200,288.000,0.300,37.000,0.500,8.000,1.000,0,5.000,0
"05/11/08","11:16:09",2576.000,"cc",28290.531,6,0.100,2135.000,0.200,384.000,0.300,48.000,0.500,8.000,1.000,1.000,5.000,0
"05/11/08","11:16:15",2380.000,"cc",28315.889,6,0.100,1994.000,0.200,349.000,0.300,30.000,0.500,6.000,1.000,1.000,5.000,0
"05/11/08","11:16:21",2034.000,"cc",28302.721,6,0.100,1724.000,0.200,267.000,0.300,34.000,0.500,9.000,1.000,0,5.000,0
"05/11/08","11:16:27",2161.000,"cc",28309.293,6,0.100,1832.000,0.200,292.000,0.300,31.000,0.500,6.000,1.000,0,5.000,0
"05/11/08","11:16:33",3156.000,"cc",28319.674,6,0.100,2707.000,0.200,410.000,0.300,29.000,0.500,9.000,1.000,1.000,5.000,0
"05/11/08","11:16:39",2707.000,"cc",28284.625,6,0.100,2302.000,0.200,363.000,0.300,35.000,0.500,6.000,1.000,1.000,5.000,0
"05/11/08","11:16:45",2614.000,"cc",28331.900,6,0.100,2198.000,0.200,378.000,0.300,30.000,0.500,8.000,1.000,0,5.000,0
"05/11/08","11:16:51",2680.000,"cc",28349.223,6,0.100,2276.000,0.200,354.000,0.300,42.000,0.500,6.000,1.000,2.000,5.000,0
"05/11/08","11:16:57",2652.000,"cc",28314.574,6,0.100,2264.000,0.200,346.000,0.300,37.000,0.500,5.000,1.000,0,5.000,0
"05/11/08","11:17:03",3294.000,"cc",28323.861,6,0.100,2784.000,0.200,462.000,0.300,43.000,0.500,5.000,1.000,0,5.000,0
"05/11/08","11:17:09",3582.000,"cc",28296.902,6,0.100,3032.000,0.200,476.000,0.300,65.000,0.500,8.000,1.000,1.000,5.000,0
"05/11/08","11:17:15",4750.000,"cc",28311.316,6,0.100,4087.000,0.200,589.000,0.300,64.000,0.500,8.000,1.000,2.000,5.000,0
"05/11/08","11:17:21",6565.000,"cc",28279.154,6,0.100,5610.000,0.200,864.000,0.300,78.000,0.500,13.000,1.000,0,5.000,0
"05/11/08","11:17:27",4801.000,"cc",28324.828,6,0.100,4082.000,0.200,657.000,0.300,49.000,0.500,13.000,1.000,0,5.000,0
"05/11/08","11:17:33",4535.000,"cc",28347.586,6,0.100,3853.000,0.200,618.000,0.300,54.000,0.500,10.000,1.000,0,5.000,0
"05/11/08","11:17:39",3721.000,"cc",28270.270,6,0.100,3209.000,0.200,467.000,0.300,36.000,0.500,9.000,1.000,0,5.000,0
"05/11/08","11:17:45",3784.000,"cc",28393.096,6,0.100,3253.000,0.200,475.000,0.300,51.000,0.500,4.000,1.000,1.000,5.000,0
"05/11/08","11:17:51",3870.000,"cc",28370.494,6,0.100,3363.000,0.200,458.000,0.300,42.000,0.500,7.000,1.000,0,5.000,0
"05/11/08","11:17:57",5320.000,"cc",28321.508,6,0.100,4559.000,0.200,705.000,0.300,42.000,0.500,14.000,1.000,0,5.000,0
"05/11/08","11:18:03",5756.000,"cc",28306.219,6,0.100,4984.000,0.200,720.000,0.300,47.000,0.500,4.000,1.000,1.000,5.000,0
"05/11/08","11:18:09",6582.000,"cc",28267.740,6,0.100,5690.000,0.200,831.000,0.300,53.000,0.500,8.000,1.000,0,5.000,0
"05/11/08","11:18:15",6335.000,"cc",28327.906,6,0.100,5517.000,0.200,763.000,0.300,49.000,0.500,6.000,1.000,0,5.000,0
"05/11/08","11:18:21",7419.000,"cc",28348.688,6,0.100,6437.000,0.200,918.000,0.300,50.000,0.500,14.000,1.000,0,5.000,0
"05/11/08","11:18:27",11408.000,"cc",28344.584,6,0.100,9916.000,0.200,1385.000,0.300,96.000,0.500,11.000,1.000,0,5.000,0
"05/11/08","11:18:33",8504.000,"cc",28290.094,6,0.100,7343.000,0.200,1070.000,0.300,84.000,0.500,7.000,1.000,0,5.000,0
"05/11/08","11:18:39",9428.000,"cc",28251.748,6,0.100,8166.000,0.200,1155.000,0.300,93.000,0.500,14.000,1.000,0,5.000,0